Weather History for Rome Urbe AFB, Italy

Change the Weather History Date:

Saturday, January 14, 2012

  Actual Average Record
Temperature  
Mean Temperature 46 °F -  
Max Temperature 59 °F 55 °F 59 °F (1997)
Min Temperature 33 °F 36 °F 23 °F (2006)
Degree Days  
Heating Degree Days 19    
Moisture  
Dew Point 34 °F    
Average Humidity 70    
Maximum Humidity 100    
Minimum Humidity 29    
Precipitation  
Precipitation 0.00 in 0.10 in - ()
Sea Level Pressure  
Sea Level Pressure 30.04 in    
Wind  
Wind Speed 1 mph ()    
Max Wind Speed 5 mph    
Max Gust Speed -    
Visibility 3.7 miles    
Events Fog    
Averages and records for this station are not official NWS values.
T = Trace of Precipitation, MM = Missing Value Source: Averaged Metar Reports

Daily Weather History Graph

Daily Weather History Graph

Search for Another Location

Airport:

Trip Planner

Search our weather history database for the weather conditions in past years. The results will help you decide how hot, cold, wet, or windy it might be!

Date:

Astronomy

Jan. 14, 2012 Rise Set
Actual Time 7:36 AM CET 5:01 PM CET
Civil Twilight 7:05 AM CET 5:32 PM CET
Nautical Twilight 6:30 AM CET 6:07 PM CET
Astronomical Twilight 5:57 AM CET 6:40 PM CET
Moon 11:10 PM CET (1/14) 10:06 AM CET (1/14)
Length of Visible Light 10h 27m
Length of Day
9h 25m
Waning Gibbous, 71% of the Moon is Illuminated
Jan 14
Waning Gibbous
Jan 16
Last Quarter
Jan 23
New
Jan 31
First Quarter
Feb 7
Full

Hourly Weather History & Observations

Time (CET) Temp. Dew Point Humidity Pressure Visibility Wind Dir Wind Speed Gust Speed Precip Events Conditions
7:18 AM 35.6 °F 35.6 °F 100% 30.04 in 3.7 mi Variable 1.2 mph - N/A   Unknown
7:48 AM 33.8 °F 33.8 °F 100% 30.04 in 0.1 mi Variable 1.2 mph - N/A Fog Fog
7:50 AM 33.8 °F 33.8 °F 100% 30.04 in 3.1 mi Calm Calm - N/A   Mist
8:29 AM 33.8 °F 33.8 °F 100% 30.04 in 0.4 mi Variable 1.2 mph - N/A Fog Fog
8:50 AM 35.6 °F 35.6 °F 100% 30.04 in 0.6 mi Variable 1.2 mph - N/A   Mist
8:52 AM 37.4 °F 37.4 °F 100% 30.04 in 1.2 mi Variable 1.2 mph - N/A   Mist
9:02 AM 37.4 °F 37.4 °F 100% 30.06 in 2.5 mi Variable 1.2 mph - N/A   Mist
9:19 AM 41.0 °F 41.0 °F 100% 30.06 in 3.7 mi Calm Calm - N/A   Unknown
9:50 AM 44.6 °F 42.8 °F 93% 30.06 in 5.0 mi Calm Calm - N/A   Unknown
10:50 AM 55.4 °F 39.2 °F 54% 30.06 in - Calm Calm - N/A   Clear
11:50 AM 55.4 °F 32.0 °F 41% 30.04 in 6.2 mi North 4.6 mph - N/A   Partly Cloudy
12:50 PM 55.4 °F 28.4 °F 36% 30.04 in 6.2 mi Calm Calm - N/A   Partly Cloudy
1:50 PM 59.0 °F 26.6 °F 29% 29.95 in 6.2 mi Variable 1.2 mph - N/A   Partly Cloudy
2:50 PM 59.0 °F 28.4 °F 31% 30.01 in 6.2 mi Variable 2.3 mph - N/A   Partly Cloudy
3:50 PM 57.2 °F 24.8 °F 29% 30.01 in 6.2 mi Variable 2.3 mph - N/A   Partly Cloudy
4:50 PM 53.6 °F 32.0 °F 44% 30.01 in - Variable 3.5 mph - N/A   Clear
5:50 PM 48.2 °F 35.6 °F 62% 30.04 in - Variable 2.3 mph - N/A   Clear
6:50 PM 48.2 °F 35.6 °F 62% 30.04 in - SW 4.6 mph - N/A   Clear
7:50 PM 44.6 °F 28.4 °F 53% 30.04 in - Variable 1.2 mph - N/A   Clear
8:50 PM 41.0 °F 32.0 °F 70% 30.06 in - Calm Calm - N/A   Clear
9:50 PM 37.4 °F 30.2 °F 75% 30.06 in - Calm Calm - N/A   Clear